Regional Weather Roundup
Issued by NWS Sterling, VA

Home | Current Version | Previous Version | Graphics & Text | Print | Product List | Glossary On
Versions: 1 2 3 4 5 6 7 8 9 10 11 12 13 14 15 16 17 18 19 20 21 22 23 24 25 26 27 28 29 30 31 32 33 34 35 36 37 38 39 40 41 42 43 44 45 46 47 48 49 50
000
ASUS41 KLWX 190510
RWRLWX

REGIONAL WEATHER ROUNDUP
NATIONAL WEATHER SERVICE BALTIMORE MD/WASHINGTON DC
100 AM EDT SUN OCT 19 2014

Note: "FAIR" indicates few or no clouds below 12,000 feet
with no significant weather and/or obstructions to visibility.
 TC=TEMPERATURE CELSIUS

 * =Non NWS site. Station does not report precipitation (e.g. rain,
    snow, etc.), thunder, or fog.

DCZ001-MDZ009-015-VAZ040>042-051-053>054-190600-
WASHINGTON METRO

CITY           SKY/WX    TMP DP  RH WIND       PRES   REMARKS
WASHINGTON NAT MOCLDY    55  39  54 NW8       29.87F
DULLES         CLOUDY    51  40  65 W14       29.88F
ANDREWS AFB    MOCLDY    52  40  63 W9        29.86S
FT BELVOIR     PTCLDY    51  40  66 W10       29.88F
QUANTICO       PTCLDY    50  39  66 NW8       29.90S
COLLEGE PARK*  CLOUDY    54  41  62 W6        29.86F
LEESBURG*      CLOUDY    52  43  71 W6        29.89F
MANASSAS*      CLOUDY    50  43  76 CALM      29.90S
GAITHERSBURG*  CLOUDY    50  39  66 W8        29.90S

$$

MDZ006>007-011-014-190600-
BALTIMORE METRO

CITY           SKY/WX    TMP DP  RH WIND       PRES   REMARKS
BWI AIRPORT    MOCLDY    51  41  68 W9        29.84F
MD SCIENCE CTR   N/A     53  40  61 MISG      29.84F
MARTIN STATE   MOCLDY    52  43  71 W7        29.85S
ANNAPOLIS      PTCLDY    52  41  66 W8        29.85S
FORT MEADE*    MOCLDY    50  41  71 NW7G16    29.88S

$$

MDZ012-015-019>023-190600-
MARYLAND EASTERN SHORE

CITY           SKY/WX    TMP DP  RH WIND       PRES   REMARKS
OCEAN CITY     CLEAR     53  41  63 NW6       29.83R
SALISBURY      CLEAR     55  41  59 W8        29.83S
BAY BRIDGE AP*   N/A     54  41  62 W14       29.85S
EASTON*        CLEAR     55  44  66 NW7       29.88S

$$

MDZ017>025-190600-
SOUTHERN MARYLAND

CITY           SKY/WX    TMP DP  RH WIND       PRES   REMARKS
PATUXENT RIVER CLEAR     52  39  61 W15       29.86S
ST INIGOES     CLEAR     54  38  54 NW12G20   29.86F
LEONARDTOWN*   CLEAR     52  37  58 W10G17    29.88S

$$

MDZ003>005-190600-
NORTH CENTRAL MARYLAND

CITY           SKY/WX    TMP DP  RH WIND       PRES   REMARKS
FREDERICK*     CLOUDY    55  39  54 NW8G16    29.91R
HAGERSTOWN APT MOCLDY    50  39  66 NW18G28   29.87F
WESTMINSTER*   CLOUDY    52  41  66 W10       29.85S

$$

MDZ501>502-190600-
WESTERN MARYLAND

CITY           SKY/WX    TMP DP  RH WIND       PRES   REMARKS
OAKLAND*       FOG       37 N/A N/A NW10G20   29.92S VSB 1/2
CUMBERLAND*    CLOUDY    50  39  66 NW6       29.97S

$$

VAZ025>031-190600-
SHENANDOAH VALLEY

CITY           SKY/WX    TMP DP  RH WIND       PRES   REMARKS
WINCHESTER*    CLOUDY    52  34  50 NW12      29.89F
FRONT ROYAL*   MOCLDY    50  37  62 NW10G20   29.90R
LURAY*         CLOUDY    52  39  62 NW15G21   29.92R
NEW MARKET*    CLOUDY    49  37  63 CALM      29.92S
STAUNTON*      CLOUDY    48  38  68 W6        29.95R
WAYNESBORO*    FAIR      46  37  70 CALM      29.93S

$$

WVZ021-048>050-054>055-190600-
EASTERN WEST VIRGINIA PANHANDLE

CITY           SKY/WX    TMP DP  RH WIND       PRES   REMARKS
MARTINSBURG    CLOUDY    52  37  56 NW12      29.89F
PETERSBURG*    MOCLDY   N/A N/A N/A NW9       29.96F

$$

VAZ036>039-050-190600-
CENTRAL FOOTHILLS

CITY           SKY/WX    TMP DP  RH WIND       PRES   REMARKS
CHARLOTTESVILL CLOUDY    52  38  58 W3        29.92S
CULPEPER*      PTCLDY    45  41  87 CALM      29.91F
ORANGE*        FAIR      50  37  62 CALM      29.93S
GORDONSVILLE*  CLOUDY    49  39  69 W3        29.91S
WARRENTON*     MOCLDY    47  44  92 W5        29.89F

$$

VAZ055>057-190600-
NORTH AND CENTRAL PIEDMONT

CITY           SKY/WX    TMP DP  RH WIND       PRES   REMARKS
FREDERICKSBRG* CLEAR     51  41  68 NW6       29.89S
STAFFORD*      PTCLDY    45  38  76 NW3       29.93F

$$

NCZ024-NYZ072-PAZ021-071-VAZ022-071-190600-
OTHER REGIONAL OBSERVATIONS

CITY           SKY/WX    TMP DP  RH WIND       PRES   REMARKS
NEW YORK CITY  CLOUDY    56  42  59 MISG      29.75S
PHILADELPHIA   PTCLDY    54  41  61 W9        29.79F
PITTSBURGH     MOCLDY    44  36  73 NW18G26   30.00R
ROANOKE        CLOUDY    53  39  59 NW13      29.98S
RICHMOND       PTCLDY    55  39  54 N10       29.89S
RALEIGH        PTCLDY    55  43  63 VRB3      29.93R

$$

ANZ530>537-190600-
MARINE OBSERVATIONS

STATION/POSITION TIME  TEMP    WIND        PRES
                       AIR SEA DIR/SP/G
                 (UTC) (F)     (DEG/KT/KT) (MB)
THOMAS PT LIGHT  0500   54 65  300/ 15/ 18 1011.7F
BALT KEY BRIDGE  0500   53     270/ 13/ 16 1010.2S
COVE POINT       0500   53     320/ 12/ 17 1011.0R
LEWISETTA        0500   57 66  330/ 14/ 18 1011.0S
SOLOMONS ISLAND  0500      68                N/A
PINEY POINT      0500          340/ 25/ 29   N/A

$$



USA.gov is the U.S. government's official web portal to all federal, state and local government web resources and services.